Preview of NWS' New Version of Forecast
This preview is not operational and should not be used for support decisions.

Regional Weather Roundup (RWR)

Issued by Philadelphia/Mt Holly (PHI)

                            
000
ASUS41 KPHI 181912
RWRPHI

REGIONAL WEATHER ROUNDUP
NATIONAL WEATHER SERVICE MOUNT HOLLY NJ
200 PM EST FRI JAN 18 2019

NOTE:  "FAIR" INDICATES FEW OR NO CLOUDS BELOW 12,000 FEET WITH NO
SIGNIFICANT WEATHER AND/OR OBSTRUCTIONS TO VISIBILITY.

 * = STATION DOES NOT REPORT PRECIPITATION (E.G. RAIN, SNOW, ETC.) 
        OR FOG.

NJZ015>026-182000-
SOUTHERN NEW JERSEY
  
CITY           SKY/WX    TMP DP  RH WIND       PRES   REMARKS
POMONA         CLOUDY    39  38  96 CALM      30.06F                  
WILDWOOD*      CLOUDY    37  36  96 NW7       30.08S WCI  32          
MILLVILLE      CLOUDY    38  35  89 W7        30.06F WCI  33          
WRIGHTSTOWN    CLOUDY    36  35  97 CALM      30.03F FOG              
MOUNT HOLLY    CLOUDY    36  33  89 CALM      30.06F FOG              
TRENTON        CLOUDY    34  32  92 W3        30.05F FOG              

$$
NJZ001>014-182000-
NORTHERN NEW JERSEY
  
CITY           SKY/WX    TMP DP  RH WIND       PRES   REMARKS
SUSSEX         CLOUDY    32  28  85 SW5       30.02F WCI  27          
ANDOVER*         N/A     32  27  81 W3        30.02F                  
MORRISTOWN     CLOUDY    36  32  87 CALM      30.05F FOG              
NEWARK         CLOUDY    37  33  85 VRB3      30.05F                  
TETERBORO      CLOUDY    38  32  79 SE9       30.04F WCI  31          
CALDWELL       CLOUDY    35  31  85 CALM      30.05F FOG              
SOMERVILLE     CLOUDY    34  30  85 CALM      30.04F                  
ALLAIRE*       CLOUDY    38  35  89 W3        30.06F                  
TOMS RIVER*    CLOUDY    38  36  92 CALM      30.06F                  

$$
PAZ043-044-047-054-055-060>062-066>071-182000-
EASTERN PENNSYLVANIA
  
CITY           SKY/WX    TMP DP  RH WIND       PRES   REMARKS
PHILADELPHIA   CLOUDY    35  33  92 CALM      30.07F FOG              
NORTH PHILA    CLOUDY    37  33  85 VRB3      30.07F FOG              
BLUE BELL*     CLOUDY    32  32 100 CALM      30.07F                  
DOYLESTOWN     CLOUDY    32  30  92 SW3       30.04F FOG              
QUAKERTOWN*    CLOUDY    32  32 100 SW5       30.04  FOG     WCI  27  
PERKASIE*      CLOUDY    32  32 100 CALM      30.04F FOG              
POTTSTOWN      CLOUDY    32  31  96 CALM      30.06F FOG              
LANCASTER      CLOUDY    34  30  85 W6        30.06S FOG     WCI  29  
COATESVILLE    CLOUDY    36  32  87 W8        30.05F FOG     WCI  29  
READING        CLOUDY    34  31  88 W3        30.05F                  
ALLENTOWN      CLOUDY    34  29  82 SW5       30.05F HAZE    WCI  30  
MOUNT POCONO   CLOUDY    30  28  92 W10       29.94F WCI  21          
HAZLETON       CLOUDY   N/A N/A N/A W5        30.00S                  
LEHIGHTON      CLOUDY    34  30  86 CALM      30.04F                  
WILKES BARRE   CLOUDY    33  29  85 W10       29.99F WCI  25          

$$
DEZALL-MDZ008-012-015-019-020-182000-
DELAWARE AND EASTERN MARYLAND
  
CITY           SKY/WX    TMP DP  RH WIND       PRES   REMARKS
WILMINGTON     CLOUDY    38  33  82 W6        30.07F WCI  33          
DOVER          CLOUDY    39  36  89 SW7       30.06F WCI  34          
GEORGETOWN     PTSUNNY   46  37  71 CALM      30.06F                  
EASTON         CLOUDY    39  36  87 NW7       30.11F WCI  34          
ABERDEEN       CLOUDY    36  33  89 SW6       30.08F FOG     WCI  31  
PATUXENT       FAIR      42  39  89 NE6       30.07                   
OCEAN CITY     FAIR      49  37  63 N9        30.06F                  
WALLOPS ISLAND FAIR      52  36  54 NW6       30.06F                  
SALISBURY      FAIR      48  38  68 N5        30.06F                  

$$
PAZ001-021-NYZ056-072-MDZ011-DCZ001-182000-
OTHER NEARBY LOCATIONS
  
CITY           SKY/WX    TMP DP  RH WIND       PRES   REMARKS
HARRISBURG     CLOUDY    33  28  81 W6        30.07R HAZE    WCI  28  
STATE COLLEGE  CLOUDY    32  30  93 SW6       30.03R FOG     WCI  26  
WILLIAMSPORT   CLOUDY    33  26  75 CALM      30.05R                  
BINGHAMTON     CLOUDY    30  25  81 W10       29.94S WCI  21          
NEW YORK CITY  CLOUDY    38  32  79 MISG      30.06                   
BALTIMORE      FAIR      40  35  83 CALM      30.06F                  
WASHINGTON DC  CLOUDY    38  34  85 S5        30.09F FOG     WCI  34  

$$